World > North America > United States > Oregon

Hourly Imnaha, OR Regional Weather

Feedback E-mail the Weather

Quick WX

Imnaha, OR Weather Maps

°F °C°F °C
Imnaha Weather Map
UTC Time: 6/30/2022, 23:18
Your Time:

Imnaha, OR Regional Weather

Expires:202207010000;;463894
ASUS46 KPQR 302310
RWROR 

OREGON REGIONAL WEATHER ROUNDUP
NATIONAL WEATHER SERVICE PORTLAND OR
400 PM PDT THU JUN 30 2022

NOTE: "FAIR" INDICATES FEW OR NO CLOUDS BELOW 12,000 FEET WITH
NO SIGNIFICANT WEATHER AND/OR OBSTRUCTIONS TO VISIBILITY.


ORZ029>031-041-044-049-050-061>064-502-503-505>511-010000-
EASTERN OREGON

  
CITY           SKY/WX    TMP DP  RH WIND       PRES   REMARKS
MADRAS         SUNNY     82  30  15 N10G17    30.03F                  
REDMOND        SUNNY     86  33  15 N15G21    30.01F                  
BEND           MOSUNNY   84  30  14 N12       30.04F                  
PRINEVILLE     SUNNY     82  27  13 NW18G24   30.02F                  
KLAMATH FALLS  MOSUNNY   84  36  18 VRB6      30.03F                  
LAKEVIEW       SUNNY     83  28  13 W8G16     30.07F                  
HERMISTON      SUNNY     87  47  24 NE7       29.96F                  
PENDLETON      SUNNY     86  46  24 NE9G16    29.98F                  
JOHN DAY       MOSUNNY   85  42  22 NW13      30.00F                  
MEACHAM        SUNNY     75  48  38 VRB6      30.08F                  
LA GRANDE      MOSUNNY   83  44  25 N9        30.01F                  
BAKER CITY     MOSUNNY   81  48  31 NW12      30.01F                  
BURNS          MOSUNNY   88  29  12 W6G17     30.01F                  
ROME             N/A     91  25   9 W10G22    29.97F                  
ONTARIO        SUNNY     94  33  11 CALM      29.92F                  
$$


OTHER REGIONAL REPORTS
  
CITY           SKY/WX    TMP DP  RH WIND       PRES   REMARKS
SEATTLE        MOSUNNY   73  50  44 W14       30.10S                  
SPOKANE        PTSUNNY   79  42  26 NE9       30.06F                  
VANCOUVER BC   MOSUNNY   70  61  73 W13       30.09F                  
PRINCE GEORGE  SUNNY     75  52  43 VRB2      30.06S                  
DAWSON CREEK   MOSUNNY   81  46  30 E8        29.98F                  
WHITEHORSE     MOSUNNY   73  48  40 N6        30.08F                  
BOISE          SUNNY     92  27   9 N12G21    29.93F                  
REDDING        SUNNY     95  31  10 S14       29.89F                  
SAN FRANCISCO  PTSUNNY   60  50  69 W16G29    30.05F                  

$$

  

SKY/WX - Weather  TMP - Temperature  DP - Dew Point  RH - Humidity
WIND - Wind Direction/Speed PRES - Barometric Pressure VSB - Visibility
WCI - Wind Chill Index E13G22 Wind - East Wind 13 mph/Gusts of 22 mph

Trending Headlines

Imnaha Radar Loop



Imnaha Quick Facts


National Two Day Weather Forecast


E-mail the Imnaha Weather Forecast

Voice your opinion or tell us about page issues...